STARLINK-11596, 64321

Orbit data source: Space-Track

STARLINK-11596, 64321 is a payload satellite owned by SpaceX/Seattle (US) in LEO that was launched on Tue, 10 Jun 2025 UTC via an FALCON 9 launch vehicle from the Air Force Eastern Test Range (AFETR). Payload-class satellites include a variety of spacecraft equipped with specific instruments for various scientific and technological missions. These include communications satellites like Starlink; space stations such as the ISS; scientific satellites like the Hubble; Earth observation satellites from companies like Planet Labs, Umbra, and HawkEye 360; GPS; miniature CubeSats for education and research; and military/defense satellites.

Loading next visibility...
Identifier
64321, 2025-124E
Orbit
LEO
Country
Flag of USUS
Related business
Manufacturer
SpaceX/Seattle
Mission
Operational Commercial Communications
Bus & Motor
STARLINK V2MD, Unknown motor
Mass
960 kg wet, ~910 kg dry
Launch date (UTC)
2025-06-10 (9 months ago)
Launch vehicle
FALCON 9
Launch site
Air Force Eastern Test Range (AFETR)
Object type
Payload
Rocket body
Debris
Shape & HBR
Box + 2 Pan, 18.1 m
Radar Cross Section
36.964 m², Large (>1 m²)

Expand to show TLE details & history
Last TLE update: 9 hours ago

TLE from 9 hours ago
0 STARLINK-11596
1 64321U 25124E   26074.48663909  .00325748  00000-0  24281-2 0  9992
2 64321  42.9993 354.4922 0002237 287.2243  72.8379 15.70994941 43748
Epoch: 2026-03-15T11:40Z
TLE epoch observation values (Epoch: 2026-03-15T11:40:45.617Z)
Latitude
-0.00006°
Longitude
6.20929°
Altitude
355.379 km
Speed
7.698 km/s
True Right ascension
23h 37m 58s
True Declination
0° 00' 00"
Sunlit
Object was in daylight at epoch
Visualization orbit readout
Latitude
Unknown
Longitude
Unknown
Altitude
Unknown
Speed
Unknown
Apparent Right ascension
Unknown
Apparent Declination
Unknown
Sunlit
N/A
Visualization observer readout
Local Sidereal Time
01:17:12
Azimuth
Unknown
Elevation
Unknown
Doppler factor
Unknown
Orbital elements
Apogee altitude
359.541 km
Perigee altitude
356.527 km
Semi-major axis
6,736.171 km
Eccentricity
0.00022
Inclination
42.9993°
RAAN
354.4922°
Arg. of periapsis
287.2243°
True anomaly
72.86239°
Mean anomaly
72.8379°
Eccentric anomaly
72.85015°
Mean motion
3.92576 °/min
Orbital period
91.7 mins
BSTAR
0.0024281
Loading maneuver chart data...
Computing Atmospheric mass density...
Loading historical data...
Loading historical data...
Loading historical data...
Loading historical data...
Loading historical data...
Loading historical data...
Loading historical data...

Documentation

Showing up to 5 results
|